Regional Weather Roundup
Issued by NWS Sterling, VA

Home | Current Version | Previous Version | Text Only | Print | Product List | Glossary Off
Versions: 1 2 3 4 5 6 7 8 9 10 11 12 13 14 15 16 17 18 19 20 21 22 23 24 25 26 27 28 29 30 31 32 33 34 35 36 37 38 39 40 41 42 43 44 45 46 47 48 49 50

836
ASUS41 KLWX 180711
RWRLWX

REGIONAL WEATHER ROUNDUP
NATIONAL WEATHER SERVICE BALTIMORE MD/WASHINGTON DC
200 AM EST MON DEC 18 2017

Note: "FAIR" indicates few or no clouds below 12,000 feet
with no significant weather and/or obstructions to visibility.
 TC=TEMPERATURE CELSIUS

 * =Non NWS site. Station does not report precipitation (e.g. rain,
    snow, etc.), thunder, or fog.

DCZ001-MDZ009-015-VAZ040>042-051-053>054-180800-
WASHINGTON METRO

CITY           SKY/WX    TMP DP  RH WIND       PRES   REMARKS
WASHINGTON NAT CLOUDY    42  35  76 S3        30.13F
DULLES         CLOUDY    39  35  86 CALM      30.12F
ANDREWS AFB    CLOUDY    40  35  84 CALM      30.10F
FT BELVOIR     CLOUDY    39  36  89 CALM      30.12F
QUANTICO       CLOUDY    41  38  89 CALM      30.13F
COLLEGE PARK*  CLOUDY    40  33  75 CALM      30.12F
LEESBURG*      CLOUDY    41  37  87 N3        30.13R
MANASSAS*      CLOUDY    38  36  92 NW3       30.12F
GAITHERSBURG*  CLOUDY    39  34  82 NE3       30.12S

$$

MDZ006>007-011-014-180800-
BALTIMORE METRO

CITY           SKY/WX    TMP DP  RH WIND       PRES   REMARKS
BWI AIRPORT    CLOUDY    39  34  82 E3        30.12F
MD SCIENCE CTR   N/A     42  32  67 MISG      30.14F
MARTIN STATE   CLOUDY    39  34  81 CALM      30.14F
ANNAPOLIS      CLOUDY    41  39  93 CALM      30.12F
FORT MEADE*    CLOUDY    37  34  87 CALM      30.15F

$$

MDZ012-015-019>023-180800-
MARYLAND EASTERN SHORE

CITY           SKY/WX    TMP DP  RH WIND       PRES   REMARKS
OCEAN CITY     CLOUDY    44  39  82 CALM      30.15S
SALISBURY      CLOUDY    42  39  89 CALM      30.14S
BAY BRIDGE AP* CLOUDY    41  36  81 CALM      30.14S
CAMBRIDGE*     CLOUDY    41  37  87 CALM      30.14S
EASTON*        CLOUDY    42  36  80 CALM      30.17S

$$

MDZ017>025-180800-
SOUTHERN MARYLAND

CITY           SKY/WX    TMP DP  RH WIND       PRES   REMARKS
PATUXENT RIVER CLOUDY    42  36  79 CALM      30.14R
ST INIGOES     CLOUDY    44  35  70 SW3       30.13F
LEONARDTOWN*   CLOUDY    41  34  75 CALM      30.14F

$$

MDZ003>005-180800-
NORTH CENTRAL MARYLAND

CITY           SKY/WX    TMP DP  RH WIND       PRES   REMARKS
FREDERICK*     CLOUDY    37  37 100 CALM      30.15S
HAGERSTOWN APT CLOUDY    37  31  78 N6        30.10F HAZE
WESTMINSTER*   CLOUDY    39  32  75 SE3       30.10S

$$

MDZ501>502-180800-
WESTERN MARYLAND

CITY           SKY/WX    TMP DP  RH WIND       PRES   REMARKS
OAKLAND*       CLOUDY    32  32 100 SW5       30.01F
CUMBERLAND*    CLOUDY    36  34  93 CALM      30.14S

$$

VAZ025>031-180800-
SHENANDOAH VALLEY

CITY           SKY/WX    TMP DP  RH WIND       PRES   REMARKS
WINCHESTER*    CLOUDY    37  32  81 CALM      30.10S
FRONT ROYAL*   CLOUDY    41  34  75 CALM      30.09S
LURAY*         CLOUDY    37  37 100 CALM      30.10R
NEW MARKET*    CLOUDY    37  36  96 CALM      30.10S
STAUNTON*      CLOUDY    37  31  80 CALM      30.11S
WAYNESBORO*    CLOUDY    33  31  91 CALM      30.09S

$$

WVZ021-048>050-054>055-180800-
EASTERN WEST VIRGINIA PANHANDLE

CITY           SKY/WX    TMP DP  RH WIND       PRES   REMARKS
MARTINSBURG    CLOUDY    38  31  76 CALM      30.10S
PETERSBURG*    CLOUDY    36  33  91 CALM      30.10F

$$

VAZ036>039-050-180800-
CENTRAL FOOTHILLS

CITY           SKY/WX    TMP DP  RH WIND       PRES   REMARKS
CHARLOTTESVILL CLOUDY    42  34  73 SW5       30.10S
CULPEPER*      CLOUDY    36  34  92 CALM      30.13R
ORANGE*        CLOUDY    36  32  87 CALM      30.10F
GORDONSVILLE*  CLOUDY    35  34  96 CALM      30.10F
WARRENTON*     CLOUDY    38  34  83 CALM      30.11S

$$

VAZ055>057-180800-
NORTH AND CENTRAL PIEDMONT

CITY           SKY/WX    TMP DP  RH WIND       PRES   REMARKS
FREDERICKSBRG* CLOUDY    42  36  79 CALM      30.12S
STAFFORD*      CLOUDY    40  40 100 CALM      30.15F

$$

NCZ024-NYZ072-PAZ021-071-VAZ022-071-180800-
OTHER REGIONAL OBSERVATIONS

CITY           SKY/WX    TMP DP  RH WIND       PRES   REMARKS
NEW YORK CITY  CLOUDY    35  25  66 NE6       30.21S
PHILADELPHIA   CLOUDY    38  32  79 NE7       30.15F
PITTSBURGH     CLOUDY    39  32  76 S3        30.06F
ROANOKE        MOCLDY    41  35  79 CALM      30.14S
RICHMOND       CLOUDY    41  37  86 S3        30.13F
RALEIGH        MOCLDY    45  39  79 SW6       30.16F

$$

ANZ530>537-180800-
MARINE OBSERVATIONS

STATION/POSITION TIME  TEMP    WIND        PRES
                       AIR SEA DIR/SP/G
                 (UTC) (F)     (DEG/KT/KT) (MB)
THOMAS PT LIGHT  0700   42 43  110/  2/  3   N/A
BALT KEY BRIDGE  0642          120/  1/  2 1020.4F
COVE POINT       0642           CALM  /  2 1020.9F
LEWISETTA        0642      41  240/  6/  7 1020.4F
SOLOMONS ISLAND  0642      45  280/  1/  3 1020.1S
PINEY POINT      0642             CALM       N/A

$$





USA.gov is the U.S. government's official web portal to all federal, state and local government web resources and services.